Location: �terpigny
(49.8910°N, 2.9249°E)
Time: 19:28:46
(UTC+00:00)

CZ-4 R/B - Pass Details

Date: 24 October 2021
Orbit: 530 x 595 km, 97.8° (Epoch: 07 December)

Event Time Altitude Azimuth Distance (km) Brightness Sun altitude
Rises 18:01:40 0° 151° (SSE) 2,747 4.6 -13.8°
Reaches altitude 10° 18:03:49 10° 146° (SSE) 1,866 3.7 -14.2°
Maximum altitude 18:07:44 51° 71° (ENE) 731 1.5 -14.8°
Drops below altitude 10° 18:11:46 10° 355° (N) 1,916 4.1 -15.5°
Sets 18:14:00 0° 351° (N) 2,830 5.1 -15.8°
